Retour au catalogue

THOR ABLESTAR R/B

ActifLEO
NORAD 118·ROCKET BODY·🇺🇸 United States

Lancé Jun 29, 1961 depuis Cape Canaveral Space Force Station

Loading…

Prochains Passages (prochaines 24 heures)

TLE

FraisSource: Space-Track

Époque: Sep 14, 2026, 06:21 UTC

1 00118U 61015C   26257.26508017  .00000001  00000-0  50670-4 0  9997
2 00118  66.7633 198.3315 0085965 213.0476 146.5221 14.02759392328634

Suivez THOR ABLESTAR R/B en temps réel avec AllMySat

Download on the App Store